Terminal Aerodrome Forecast
Issued by NWS

Home | Current Version | Previous Version | Text Only | Print | Product List | Glossary On
Versions: 1 2 3 4 5 6 7 8 9 10 11 12 13 14 15 16 17 18 19 20 21 22 23 24 25 26 27 28 29 30 31 32 33 34 35 36 37 38 39 40 41 42 43
000
FTUS45 KBOU 300530
TAFAPA
TAF
KAPA 300530Z 3006/3106 17011KT P6SM SCT120 BKN220
     FM300800 20012KT P6SM FEW120 SCT200
     FM301500 32007KT P6SM FEW150 SCT220
     FM301900 03010KT P6SM SCT090 BKN150
     FM310100 16012KT P6SM BKN090 BKN150
     FM310500 20010KT P6SM FEW100 SCT150=

USA.gov is the U.S. government's official web portal to all federal, state and local government web resources and services.